Notices

What's New in latest Release from April 7th, 2021:

- Updated Glossary, including Speed of Maximum Gust, and Total Hourly Precipitation

- Updated national and regional climate services offices contacts and prices information

- Addition of station inventory lists for 1981-2010, 1971-2000, and 1961-1990 Normals.

If you haven't already, please take our survey and provide feedback about our website: https://eccc.sondage-survey.ca/f/LanguageSelection.aspx?s=442ca660-fcf1-47c0-95a9-59707d6fd709

Hourly Data Report for April 15, 2021

MIRAMICHI RCS
NEW BRUNSWICK
Current Station Operator: ECCC - MSC

47°00'34.000" N
65°27'54.000" W
33.00 m
8100989
71744
ACQ

Download Data

Hourly Data (April 2021)
Hourly Data Report for April 15, 2021
TIME
LST
Temp Definition
°C
Dew Point Definition
°C
Rel Hum Definition
%
Precip. Amount Definition
mm

Wind Dir Definition
10's deg

Wind Spd Definition
km/h
Visibility Definition
km
Stn Press Definition
kPa
Hmdx Definition


Wind Chill Definition


Weather Definition


00:00 -2.5 -3.6 92 LegendMM 0 1   101.10   -3 LegendNANA
01:00 -2.6 -3.6 93 LegendMM 24 2   101.09   -3 LegendNANA
02:00 -3.0 -3.8 95 LegendMM 28 5   101.08   -5 LegendNANA
03:00 -2.8 -3.5 95 LegendMM 27 3   101.08   -4 LegendNANA
04:00 -2.9 -3.6 95 LegendMM 26 4   101.04   -4 LegendNANA
05:00 -3.3 -3.9 96 LegendMM 27 5   101.05   -5 LegendNANA
06:00 -3.4 -4.3 93 LegendMM 28 4   101.06   -5 LegendNANA
07:00 -1.0 -2.1 92 LegendMM 23 1   101.09   -1 LegendNANA
08:00 2.5 -1.0 77 LegendMM 11 3   101.10     LegendNANA
09:00 5.2 -1.2 63 LegendMM 8 10   101.11     LegendNANA
10:00 7.6 -2.7 48 LegendMM 9 6   101.10     LegendNANA
11:00 9.3 -5.2 35 LegendMM 7 13   101.05     LegendNANA
12:00 10.2 -5.8 32 LegendMM 8 21   101.03     LegendNANA
13:00 11.6 -4.2 33 LegendMM 6 23   100.99     LegendNANA
14:00 11.2 -5.2 31 LegendMM 7 28   100.98     LegendNANA
15:00 9.8 -6.0 32 LegendMM 7 30   100.98     LegendNANA
16:00 7.3 -2.0 52 LegendMM 7 32   101.05     LegendNANA
17:00 5.5 -0.7 64 LegendMM 7 29   101.08     LegendNANA
18:00 3.6 -0.2 76 LegendMM 6 28   101.12     LegendNANA
19:00 2.3 -0.2 83 LegendMM 6 25   101.15     LegendNANA
20:00 1.7 -0.2 87 LegendMM 6 26   101.17     LegendNANA
21:00 0.7 -0.7 90 LegendMM 7 23   101.17     LegendNANA
22:00 0.2 -1.5 88 LegendMM 6 16   101.17     LegendNANA
23:00 0.5 -1.6 86 LegendMM 6 22   101.12     LegendNANA

Notes on Data Quality.

Legend

  • E = Estimated
  • M = Missing
  • NA = Not Available*
  • [empty] = Indicates an unobserved value
Date modified: